Terminal Aerodrome Forecast
Issued by NWS Mt. Holly, NJ

Home | Current Version | Previous Version | Text Only | Print | Product List | Glossary On
Versions: 1 2 3 4 5 6 7 8 9 10 11 12 13 14 15 16 17 18 19 20 21 22 23 24 25 26 27 28 29 30 31 32 33
000
FTUS41 KPHI 220300 AAB
TAFPHL
TAF AMD
KPHL 220312Z 2203/2306 26008KT P6SM SCT045 BKN060
      TEMPO 2203/2204 26010G20KT -SHRA
     FM221300 32012G20KT P6SM FEW050
     FM222300 33011KT P6SM SKC=

USA.gov is the U.S. government's official web portal to all federal, state and local government web resources and services.